Year,Month,Day,Hour,Minute,Value (Times are PST for windgust in km/hr)
2012,03,14,00,00,4.80
2012,03,14,00,01,4.80
2012,03,14,00,02,4.80
2012,03,14,00,03,4.80
2012,03,14,00,04,4.80
2012,03,14,00,05,4.80
2012,03,14,00,06,4.80
2012,03,14,00,07,3.20
2012,03,14,00,08,4.80
2012,03,14,00,09,4.80
2012,03,14,00,10,4.80
2012,03,14,00,11,8.10
2012,03,14,00,12,14.50
2012,03,14,00,13,8.10
2012,03,14,00,14,6.40
2012,03,14,00,15,11.30
2012,03,14,00,16,3.20
2012,03,14,00,17,9.60
2012,03,14,00,18,6.40
2012,03,14,00,19,9.60
2012,03,14,00,20,9.60
2012,03,14,00,21,6.40
2012,03,14,00,22,6.40
2012,03,14,00,23,8.10
2012,03,14,00,24,8.10
2012,03,14,00,25,6.40
2012,03,14,00,26,8.10
2012,03,14,00,27,14.50
2012,03,14,00,28,6.40
2012,03,14,00,29,11.30
2012,03,14,00,30,6.40
2012,03,14,00,31,6.40
2012,03,14,00,32,8.10
2012,03,14,00,33,8.10
2012,03,14,00,34,6.40
2012,03,14,00,35,8.10
2012,03,14,00,36,9.60
2012,03,14,00,37,11.30
2012,03,14,00,38,9.60
2012,03,14,00,39,9.60
2012,03,14,00,40,9.60
2012,03,14,00,41,8.10
2012,03,14,00,42,9.60
2012,03,14,00,43,8.10
2012,03,14,00,44,4.80
2012,03,14,00,45,8.10
2012,03,14,00,46,11.30
2012,03,14,00,47,9.60
2012,03,14,00,48,8.10
2012,03,14,00,49,9.60
2012,03,14,00,50,6.40
2012,03,14,00,51,6.40
2012,03,14,00,52,1.60
2012,03,14,00,53,8.10
2012,03,14,00,54,4.80
2012,03,14,00,57,3.20
2012,03,14,00,58,8.10
2012,03,14,00,59,6.40
2012,03,14,01,00,4.80
2012,03,14,01,01,4.80
2012,03,14,01,02,4.80
2012,03,14,01,03,6.40
2012,03,14,01,04,6.40
2012,03,14,01,05,8.10
2012,03,14,01,06,8.10
2012,03,14,01,07,9.60
2012,03,14,01,08,6.40
2012,03,14,01,09,9.60
2012,03,14,01,10,8.10
2012,03,14,01,11,8.10
2012,03,14,01,12,6.40
2012,03,14,01,13,11.30
2012,03,14,01,14,9.60
2012,03,14,01,15,6.40
2012,03,14,01,16,6.40
2012,03,14,01,17,8.10
2012,03,14,01,18,4.80
2012,03,14,01,19,3.20
2012,03,14,01,20,6.40
2012,03,14,01,21,6.40
2012,03,14,01,22,4.80
2012,03,14,01,23,9.60
2012,03,14,01,24,9.60
2012,03,14,01,25,9.60
2012,03,14,01,26,8.10
2012,03,14,01,27,11.30
2012,03,14,01,28,9.60
2012,03,14,01,29,8.10
2012,03,14,01,30,11.30
2012,03,14,01,31,11.30
2012,03,14,01,32,17.70
2012,03,14,01,33,17.70
2012,03,14,01,34,11.30
2012,03,14,01,35,4.80
2012,03,14,01,36,11.30
2012,03,14,01,37,11.30
2012,03,14,01,38,11.30
2012,03,14,01,39,12.90
2012,03,14,01,40,14.50
2012,03,14,01,41,14.50
2012,03,14,01,42,14.50
2012,03,14,01,43,11.30
2012,03,14,01,44,8.10
2012,03,14,01,45,4.80
2012,03,14,01,46,8.10
2012,03,14,01,47,9.60
2012,03,14,01,48,9.60
2012,03,14,01,49,6.40
2012,03,14,01,50,11.30
2012,03,14,01,51,9.60
2012,03,14,01,52,6.40
2012,03,14,01,53,6.40
2012,03,14,01,54,9.60
2012,03,14,01,55,4.80
2012,03,14,01,56,11.30
2012,03,14,01,57,8.10
2012,03,14,01,58,8.10
2012,03,14,01,59,6.40
2012,03,14,02,00,3.20
2012,03,14,02,01,6.40
2012,03,14,02,02,8.10
2012,03,14,02,03,6.40
2012,03,14,02,04,8.10
2012,03,14,02,05,6.40
2012,03,14,02,06,6.40
2012,03,14,02,07,9.60
2012,03,14,02,08,9.60
2012,03,14,02,09,12.90
2012,03,14,02,10,17.70
2012,03,14,02,11,11.30
2012,03,14,02,12,17.70
2012,03,14,02,13,17.70
2012,03,14,02,14,14.50
2012,03,14,02,15,11.30
2012,03,14,02,16,9.60
2012,03,14,02,17,11.30
2012,03,14,02,18,8.10
2012,03,14,02,19,8.10
2012,03,14,02,20,8.10
2012,03,14,02,21,9.60
2012,03,14,02,22,14.50
2012,03,14,02,23,17.70
2012,03,14,02,24,16.10
2012,03,14,02,25,11.30
2012,03,14,02,26,9.60
2012,03,14,02,27,9.60
2012,03,14,02,28,11.30
2012,03,14,02,29,16.10
2012,03,14,02,30,12.90
2012,03,14,02,31,11.30
2012,03,14,02,32,16.10
2012,03,14,02,33,9.60
2012,03,14,02,34,9.60
2012,03,14,02,35,9.60
2012,03,14,02,36,9.60
2012,03,14,02,37,16.10
2012,03,14,02,38,11.30
2012,03,14,02,39,9.60
2012,03,14,02,40,16.10
2012,03,14,02,41,11.30
2012,03,14,02,42,9.60
2012,03,14,02,43,9.60
2012,03,14,02,44,11.30
2012,03,14,02,45,8.10
2012,03,14,02,46,6.40
2012,03,14,02,47,9.60
2012,03,14,02,48,8.10
2012,03,14,02,49,8.10
2012,03,14,02,50,4.80
2012,03,14,02,51,1.60
2012,03,14,02,52,4.80
2012,03,14,02,53,4.80
2012,03,14,02,54,6.40
2012,03,14,02,55,1.60
2012,03,14,02,56,6.40
2012,03,14,02,57,6.40
2012,03,14,02,58,4.80
2012,03,14,02,59,8.10
2012,03,14,03,00,4.80
2012,03,14,03,01,6.40
2012,03,14,03,02,6.40
2012,03,14,03,03,4.80
2012,03,14,03,04,8.10
2012,03,14,03,05,12.90
2012,03,14,03,06,6.40
2012,03,14,03,07,8.10
2012,03,14,03,08,12.90
2012,03,14,03,09,14.50
2012,03,14,03,10,8.10
2012,03,14,03,11,8.10
2012,03,14,03,12,9.60
2012,03,14,03,13,8.10
2012,03,14,03,14,11.30
2012,03,14,03,15,8.10
2012,03,14,03,16,8.10
2012,03,14,03,17,9.60
2012,03,14,03,18,14.50
2012,03,14,03,19,6.40
2012,03,14,03,20,8.10
2012,03,14,03,21,3.20
2012,03,14,03,22,16.10
2012,03,14,03,23,8.10
2012,03,14,03,24,6.40
2012,03,14,03,25,6.40
2012,03,14,03,26,8.10
2012,03,14,03,27,9.60
2012,03,14,03,28,6.40
2012,03,14,03,29,6.40
2012,03,14,03,30,9.60
2012,03,14,03,31,6.40
2012,03,14,03,32,16.10
2012,03,14,03,33,8.10
2012,03,14,03,34,4.80
2012,03,14,03,35,9.60
2012,03,14,03,36,8.10
2012,03,14,03,37,11.30
2012,03,14,03,38,8.10
2012,03,14,03,39,8.10
2012,03,14,03,40,8.10
2012,03,14,03,41,9.60
2012,03,14,03,42,12.90
2012,03,14,03,43,11.30
2012,03,14,03,44,9.60
2012,03,14,03,45,9.60
2012,03,14,03,46,9.60
2012,03,14,03,47,11.30
2012,03,14,03,48,8.10
2012,03,14,03,49,8.10
2012,03,14,03,50,9.60
2012,03,14,03,51,8.10
2012,03,14,03,52,3.20
2012,03,14,03,53,3.20
2012,03,14,03,54,6.40
2012,03,14,03,55,9.60
2012,03,14,03,56,6.40
2012,03,14,03,57,8.10
2012,03,14,03,58,8.10
2012,03,14,03,59,4.80
2012,03,14,04,00,9.60
2012,03,14,04,01,11.30
2012,03,14,04,02,6.40
2012,03,14,04,03,6.40
2012,03,14,04,04,11.30
2012,03,14,04,05,8.10
2012,03,14,04,06,9.60
2012,03,14,04,07,14.50
2012,03,14,04,08,6.40
2012,03,14,04,09,19.30
2012,03,14,04,10,17.70
2012,03,14,04,11,16.10
2012,03,14,04,12,11.30
2012,03,14,04,13,14.50
2012,03,14,04,14,19.30
2012,03,14,04,15,19.30
2012,03,14,04,16,8.10
2012,03,14,04,17,14.50
2012,03,14,04,18,22.50
2012,03,14,04,19,20.90
2012,03,14,04,20,17.70
2012,03,14,04,21,17.70
2012,03,14,04,22,24.20
2012,03,14,04,23,24.20
2012,03,14,04,24,22.50
2012,03,14,04,25,25.70
2012,03,14,04,26,17.70
2012,03,14,04,27,17.70
2012,03,14,04,28,22.50
2012,03,14,04,29,17.70
2012,03,14,04,30,20.90
2012,03,14,04,31,24.20
2012,03,14,04,32,29.00
2012,03,14,04,33,22.50
2012,03,14,04,34,16.10
2012,03,14,04,35,20.90
2012,03,14,04,36,16.10
2012,03,14,04,37,14.50
2012,03,14,04,38,16.10
2012,03,14,04,39,20.90
2012,03,14,04,40,22.50
2012,03,14,04,41,22.50
2012,03,14,04,42,19.30
2012,03,14,04,43,17.70
2012,03,14,04,44,22.50
2012,03,14,04,45,20.90
2012,03,14,04,46,16.10
2012,03,14,04,47,24.20
2012,03,14,04,48,29.00
2012,03,14,04,49,30.60
2012,03,14,04,50,32.20
2012,03,14,04,51,22.50
2012,03,14,04,52,24.20
2012,03,14,04,53,25.70
2012,03,14,04,54,30.60
2012,03,14,04,55,22.50
2012,03,14,04,56,17.70
2012,03,14,04,57,22.50
2012,03,14,04,58,30.60
2012,03,14,04,59,17.70
2012,03,14,05,00,19.30
2012,03,14,05,01,27.40
2012,03,14,05,02,24.20
2012,03,14,05,03,19.30
2012,03,14,05,04,17.70
2012,03,14,05,05,24.20
2012,03,14,05,06,19.30
2012,03,14,05,07,22.50
2012,03,14,05,08,19.30
2012,03,14,05,09,14.50
2012,03,14,05,10,9.60
2012,03,14,05,11,9.60
2012,03,14,05,12,11.30
2012,03,14,05,13,19.30
2012,03,14,05,14,14.50
2012,03,14,05,15,20.90
2012,03,14,05,16,17.70
2012,03,14,05,17,14.50
2012,03,14,05,18,16.10
2012,03,14,05,19,16.10
2012,03,14,05,20,16.10
2012,03,14,05,21,16.10
2012,03,14,05,22,24.20
2012,03,14,05,23,22.50
2012,03,14,05,24,24.20
2012,03,14,05,25,29.00
2012,03,14,05,26,27.40
2012,03,14,05,27,19.30
2012,03,14,05,28,17.70
2012,03,14,05,29,24.20
2012,03,14,05,30,20.90
2012,03,14,05,31,16.10
2012,03,14,05,32,8.10
2012,03,14,05,33,29.00
2012,03,14,05,34,17.70
2012,03,14,05,35,24.20
2012,03,14,05,36,14.50
2012,03,14,05,37,17.70
2012,03,14,05,38,19.30
2012,03,14,05,39,16.10
2012,03,14,05,40,33.80
2012,03,14,05,41,25.70
2012,03,14,05,42,30.60
2012,03,14,05,43,32.20
2012,03,14,05,44,22.50
2012,03,14,05,45,22.50
2012,03,14,05,46,29.00
2012,03,14,05,47,25.70
2012,03,14,05,48,35.40
2012,03,14,05,49,32.20
2012,03,14,05,50,27.40
2012,03,14,05,51,27.40
2012,03,14,05,52,24.20
2012,03,14,05,53,30.60
2012,03,14,05,54,25.70
2012,03,14,05,55,22.50
2012,03,14,05,56,17.70
2012,03,14,05,57,27.40
2012,03,14,05,58,22.50
2012,03,14,05,59,19.30
2012,03,14,06,00,27.40
2012,03,14,06,01,19.30
2012,03,14,06,02,25.70
2012,03,14,06,03,16.10
2012,03,14,06,04,17.70
2012,03,14,06,05,25.70
2012,03,14,06,06,19.30
2012,03,14,06,07,11.30
2012,03,14,06,08,17.70
2012,03,14,06,09,14.50
2012,03,14,06,10,14.50
2012,03,14,06,11,19.30
2012,03,14,06,12,11.30
2012,03,14,06,13,19.30
2012,03,14,06,14,16.10
2012,03,14,06,15,16.10
2012,03,14,06,16,19.30
2012,03,14,06,17,14.50
2012,03,14,06,18,11.30
2012,03,14,06,19,14.50
2012,03,14,06,20,14.50
2012,03,14,06,21,14.50
2012,03,14,06,22,11.30
2012,03,14,06,23,9.60
2012,03,14,06,24,14.50
2012,03,14,06,25,20.90
2012,03,14,06,26,17.70
2012,03,14,06,27,17.70
2012,03,14,06,28,19.30
2012,03,14,06,29,14.50
2012,03,14,06,30,11.30
2012,03,14,06,31,17.70
2012,03,14,06,32,9.60
2012,03,14,06,33,9.60
2012,03,14,06,34,11.30
2012,03,14,06,35,14.50
2012,03,14,06,36,12.90
2012,03,14,06,37,14.50
2012,03,14,06,38,14.50
2012,03,14,06,39,9.60
2012,03,14,06,40,19.30
2012,03,14,06,41,14.50
2012,03,14,06,42,14.50
2012,03,14,06,43,12.90
2012,03,14,06,44,17.70
2012,03,14,06,45,14.50
2012,03,14,06,46,11.30
2012,03,14,06,47,19.30
2012,03,14,06,48,17.70
2012,03,14,06,49,16.10
2012,03,14,06,50,19.30
2012,03,14,06,51,29.00
2012,03,14,06,52,19.30
2012,03,14,06,53,11.30
2012,03,14,06,54,19.30
2012,03,14,06,55,20.90
2012,03,14,06,56,22.50
2012,03,14,06,57,19.30
2012,03,14,06,58,16.10
2012,03,14,06,59,25.70
2012,03,14,07,00,22.50
2012,03,14,07,01,27.40
2012,03,14,07,02,25.70
2012,03,14,07,03,17.70
2012,03,14,07,04,20.90
2012,03,14,07,05,25.70
2012,03,14,07,06,22.50
2012,03,14,07,07,25.70
2012,03,14,07,08,24.20
2012,03,14,07,09,22.50
2012,03,14,07,10,19.30
2012,03,14,07,11,19.30
2012,03,14,07,12,19.30
2012,03,14,07,13,29.00
2012,03,14,07,14,22.50
2012,03,14,07,15,19.30
2012,03,14,07,16,22.50
2012,03,14,07,17,20.90
2012,03,14,07,18,19.30
2012,03,14,07,19,20.90
2012,03,14,07,20,14.50
2012,03,14,07,21,24.20
2012,03,14,07,22,32.20
2012,03,14,07,23,29.00
2012,03,14,07,24,30.60
2012,03,14,07,25,22.50
2012,03,14,07,26,27.40
2012,03,14,07,27,19.30
2012,03,14,07,28,17.70
2012,03,14,07,29,30.60
2012,03,14,07,30,24.20
2012,03,14,07,31,22.50
2012,03,14,07,32,20.90
2012,03,14,07,33,22.50
2012,03,14,07,34,19.30
2012,03,14,07,35,24.20
2012,03,14,07,36,27.40
2012,03,14,07,37,25.70
2012,03,14,07,38,33.80
2012,03,14,07,39,25.70
2012,03,14,07,40,30.60
2012,03,14,07,41,29.00
2012,03,14,07,42,33.80
2012,03,14,07,43,27.40
2012,03,14,07,44,22.50
2012,03,14,07,45,40.20
2012,03,14,07,46,43.50
2012,03,14,07,47,25.70
2012,03,14,07,48,22.50
2012,03,14,07,49,22.50
2012,03,14,07,50,22.50
2012,03,14,07,51,22.50
2012,03,14,07,52,17.70
2012,03,14,07,53,29.00
2012,03,14,07,54,22.50
2012,03,14,07,55,38.60
2012,03,14,07,56,33.80
2012,03,14,07,57,40.20
2012,03,14,07,58,35.40
2012,03,14,07,59,37.00
2012,03,14,08,00,24.20
2012,03,14,08,01,27.40
2012,03,14,08,02,20.90
2012,03,14,08,03,25.70
2012,03,14,08,04,24.20
2012,03,14,08,05,25.70
2012,03,14,08,06,35.40
2012,03,14,08,07,32.20
2012,03,14,08,08,35.40
2012,03,14,08,09,33.80
2012,03,14,08,10,38.60
2012,03,14,08,11,37.00
2012,03,14,08,12,22.50
2012,03,14,08,13,40.20
2012,03,14,08,14,37.00
2012,03,14,08,15,45.10
2012,03,14,08,16,38.60
2012,03,14,08,17,41.80
2012,03,14,08,18,27.40
2012,03,14,08,19,48.30
2012,03,14,08,20,49.90
2012,03,14,08,21,43.50
2012,03,14,08,22,33.80
2012,03,14,08,23,33.80
2012,03,14,08,24,20.90
2012,03,14,08,25,30.60
2012,03,14,08,26,27.40
2012,03,14,08,27,29.00
2012,03,14,08,28,25.70
2012,03,14,08,29,25.70
2012,03,14,08,30,24.20
2012,03,14,08,31,29.00
2012,03,14,08,32,35.40
2012,03,14,08,33,27.40
2012,03,14,08,34,29.00
2012,03,14,08,35,25.70
2012,03,14,08,36,33.80
2012,03,14,08,37,33.80
2012,03,14,08,38,22.50
2012,03,14,08,39,32.20
2012,03,14,08,40,22.50
2012,03,14,08,41,33.80
2012,03,14,08,42,30.60
2012,03,14,08,43,19.30
2012,03,14,08,44,29.00
2012,03,14,08,45,27.40
2012,03,14,08,46,33.80
2012,03,14,08,47,24.20
2012,03,14,08,48,33.80
2012,03,14,08,49,35.40
2012,03,14,08,50,32.20
2012,03,14,08,51,45.10
2012,03,14,08,52,40.20
2012,03,14,08,53,33.80
2012,03,14,08,54,32.20
2012,03,14,08,55,27.40
2012,03,14,08,56,35.40
2012,03,14,08,57,22.50
2012,03,14,08,58,27.40
2012,03,14,08,59,33.80
2012,03,14,09,00,37.00
2012,03,14,09,01,24.20
2012,03,14,09,02,37.00
2012,03,14,09,03,43.50
2012,03,14,09,04,32.20
2012,03,14,09,05,24.20
2012,03,14,09,06,24.20
2012,03,14,09,07,30.60
2012,03,14,09,08,29.00
2012,03,14,09,09,30.60
2012,03,14,09,10,29.00
2012,03,14,09,11,29.00
2012,03,14,09,12,38.60
2012,03,14,09,13,33.80
2012,03,14,09,14,30.60
2012,03,14,09,15,33.80
2012,03,14,09,16,19.30
2012,03,14,09,17,24.20
2012,03,14,09,18,24.20
2012,03,14,09,19,27.40
2012,03,14,09,20,20.90
2012,03,14,09,21,33.80
2012,03,14,09,22,24.20
2012,03,14,09,23,22.50
2012,03,14,09,24,24.20
2012,03,14,09,25,17.70
2012,03,14,09,26,20.90
2012,03,14,09,27,35.40
2012,03,14,09,28,27.40
2012,03,14,09,29,16.10
2012,03,14,09,30,25.70
2012,03,14,09,31,27.40
2012,03,14,09,32,24.20
2012,03,14,09,33,22.50
2012,03,14,09,34,20.90
2012,03,14,09,35,20.90
2012,03,14,09,36,27.40
2012,03,14,09,37,24.20
2012,03,14,09,38,25.70
2012,03,14,09,39,19.30
2012,03,14,09,40,24.20
2012,03,14,09,41,27.40
2012,03,14,09,42,29.00
2012,03,14,09,43,22.50
2012,03,14,09,44,33.80
2012,03,14,09,45,25.70
2012,03,14,09,46,25.70
2012,03,14,09,47,19.30
2012,03,14,09,48,24.20
2012,03,14,09,49,19.30
2012,03,14,09,50,22.50
2012,03,14,09,51,22.50
2012,03,14,09,52,24.20
2012,03,14,09,53,27.40
2012,03,14,09,54,29.00
2012,03,14,09,55,20.90
2012,03,14,09,56,27.40
2012,03,14,09,57,17.70
2012,03,14,09,58,9.60
2012,03,14,09,59,14.50
2012,03,14,10,00,24.20
2012,03,14,10,01,19.30
2012,03,14,10,02,27.40
2012,03,14,10,03,17.70
2012,03,14,10,04,24.20
2012,03,14,10,05,19.30
2012,03,14,10,06,14.50
2012,03,14,10,07,25.70
2012,03,14,10,08,24.20
2012,03,14,10,09,16.10
2012,03,14,10,10,11.30
2012,03,14,10,11,19.30
2012,03,14,10,12,19.30
2012,03,14,10,13,22.50
2012,03,14,10,14,20.90
2012,03,14,10,15,17.70
2012,03,14,10,16,9.60
2012,03,14,10,17,14.50
2012,03,14,10,18,22.50
2012,03,14,10,19,11.30
2012,03,14,10,20,16.10
2012,03,14,10,21,22.50
2012,03,14,10,22,29.00
2012,03,14,10,23,25.70
2012,03,14,10,24,22.50
2012,03,14,10,25,16.10
2012,03,14,10,26,27.40
2012,03,14,10,27,19.30
2012,03,14,10,28,27.40
2012,03,14,10,29,17.70
2012,03,14,10,30,22.50
2012,03,14,10,31,25.70
2012,03,14,10,32,22.50
2012,03,14,10,33,20.90
2012,03,14,10,34,25.70
2012,03,14,10,35,19.30
2012,03,14,10,36,16.10
2012,03,14,10,37,19.30
2012,03,14,10,38,11.30
2012,03,14,10,39,17.70
2012,03,14,10,40,22.50
2012,03,14,10,41,19.30
2012,03,14,10,42,17.70
2012,03,14,10,43,20.90
2012,03,14,10,44,19.30
2012,03,14,10,45,17.70
2012,03,14,10,46,16.10
2012,03,14,10,47,19.30
2012,03,14,10,48,16.10
2012,03,14,10,49,24.20
2012,03,14,10,50,14.50
2012,03,14,10,51,19.30
2012,03,14,10,52,17.70
2012,03,14,10,53,19.30
2012,03,14,10,54,19.30
2012,03,14,10,55,22.50
2012,03,14,10,56,11.30
2012,03,14,10,57,17.70
2012,03,14,10,58,9.60
2012,03,14,10,59,19.30
2012,03,14,11,00,19.30
2012,03,14,11,01,22.50
2012,03,14,11,02,20.90
2012,03,14,11,03,24.20
2012,03,14,11,04,27.40
2012,03,14,11,05,12.90
2012,03,14,11,06,17.70
2012,03,14,11,07,16.10
2012,03,14,11,08,16.10
2012,03,14,11,09,27.40
2012,03,14,11,10,22.50
2012,03,14,11,11,17.70
2012,03,14,11,12,16.10
2012,03,14,11,13,22.50
2012,03,14,11,14,16.10
2012,03,14,11,15,17.70
2012,03,14,11,16,19.30
2012,03,14,11,17,11.30
2012,03,14,11,18,9.60
2012,03,14,11,19,19.30
2012,03,14,11,20,16.10
2012,03,14,11,21,8.10
2012,03,14,11,22,16.10
2012,03,14,11,23,29.00
2012,03,14,11,24,27.40
2012,03,14,11,25,14.50
2012,03,14,11,26,12.90
2012,03,14,11,27,24.20
2012,03,14,11,28,30.60
2012,03,14,11,29,20.90
2012,03,14,11,30,22.50
2012,03,14,11,31,19.30
2012,03,14,11,32,25.70
2012,03,14,11,33,16.10
2012,03,14,11,34,19.30
2012,03,14,11,35,27.40
2012,03,14,11,36,25.70
2012,03,14,11,37,17.70
2012,03,14,11,38,24.20
2012,03,14,11,39,19.30
2012,03,14,11,40,14.50
2012,03,14,11,41,24.20
2012,03,14,11,42,17.70
2012,03,14,11,43,20.90
2012,03,14,11,44,20.90
2012,03,14,11,45,16.10
2012,03,14,11,46,17.70
2012,03,14,11,47,24.20
2012,03,14,11,48,22.50
2012,03,14,11,49,20.90
2012,03,14,11,50,33.80
2012,03,14,11,51,20.90
2012,03,14,11,52,27.40
2012,03,14,11,53,32.20
2012,03,14,11,54,22.50
2012,03,14,11,55,19.30
2012,03,14,11,56,25.70
2012,03,14,11,57,30.60
2012,03,14,11,58,43.50
2012,03,14,11,59,30.60
2012,03,14,12,00,27.40
2012,03,14,12,01,29.00
2012,03,14,12,02,27.40
2012,03,14,12,03,29.00
2012,03,14,12,04,24.20
2012,03,14,12,05,24.20
2012,03,14,12,06,24.20
2012,03,14,12,07,24.20
2012,03,14,12,08,24.20
2012,03,14,12,09,24.20
2012,03,14,12,10,35.40
2012,03,14,12,11,30.60
2012,03,14,12,12,25.70
2012,03,14,12,13,33.80
2012,03,14,12,14,33.80
2012,03,14,12,15,33.80
2012,03,14,12,16,40.20
2012,03,14,12,17,32.20
2012,03,14,12,18,37.00
2012,03,14,12,19,33.80
2012,03,14,12,20,33.80
2012,03,14,12,21,33.80
2012,03,14,12,22,29.00
2012,03,14,12,23,25.70
2012,03,14,12,24,32.20
2012,03,14,12,25,35.40
2012,03,14,12,26,35.40
2012,03,14,12,27,32.20
2012,03,14,12,28,35.40
2012,03,14,12,29,35.40
2012,03,14,12,30,19.30
2012,03,14,12,31,25.70
2012,03,14,12,32,17.70
2012,03,14,12,33,37.00
2012,03,14,12,34,35.40
2012,03,14,12,35,37.00
2012,03,14,12,36,24.20
2012,03,14,12,37,22.50
2012,03,14,12,38,25.70
2012,03,14,12,39,25.70
2012,03,14,12,40,27.40
2012,03,14,12,41,29.00
2012,03,14,12,42,20.90
2012,03,14,12,43,29.00
2012,03,14,12,44,32.20
2012,03,14,12,45,30.60
2012,03,14,12,46,17.70
2012,03,14,12,47,30.60
2012,03,14,12,48,25.70
2012,03,14,12,49,14.50
2012,03,14,12,50,17.70
2012,03,14,12,51,35.40
2012,03,14,12,52,20.90
2012,03,14,12,53,24.20
2012,03,14,12,54,33.80
2012,03,14,12,55,41.80
2012,03,14,12,56,37.00
2012,03,14,12,57,19.30
2012,03,14,12,58,22.50
2012,03,14,12,59,17.70
2012,03,14,13,00,22.50
2012,03,14,13,01,22.50
2012,03,14,13,02,27.40
2012,03,14,13,03,27.40
2012,03,14,13,04,32.20
2012,03,14,13,05,32.20
2012,03,14,13,06,22.50
2012,03,14,13,07,22.50
2012,03,14,13,08,22.50
2012,03,14,13,09,27.40
2012,03,14,13,10,20.90
2012,03,14,13,11,24.20
2012,03,14,13,12,27.40
2012,03,14,13,13,25.70
2012,03,14,13,14,33.80
2012,03,14,13,15,25.70
2012,03,14,13,16,25.70
2012,03,14,13,17,33.80
2012,03,14,13,18,22.50
2012,03,14,13,19,14.50
2012,03,14,13,20,24.20
2012,03,14,13,21,20.90
2012,03,14,13,22,24.20
2012,03,14,13,23,22.50
2012,03,14,13,24,27.40
2012,03,14,13,25,20.90
2012,03,14,13,26,17.70
2012,03,14,13,27,25.70
2012,03,14,13,28,27.40
2012,03,14,13,29,29.00
2012,03,14,13,30,29.00
2012,03,14,13,31,22.50
2012,03,14,13,32,22.50
2012,03,14,13,33,17.70
2012,03,14,13,34,22.50
2012,03,14,13,35,19.30
2012,03,14,13,36,22.50
2012,03,14,13,37,22.50
2012,03,14,13,38,14.50
2012,03,14,13,39,24.20
2012,03,14,13,40,25.70
2012,03,14,13,41,29.00
2012,03,14,13,42,17.70
2012,03,14,13,43,19.30
2012,03,14,13,44,19.30
2012,03,14,13,45,17.70
2012,03,14,13,46,24.20
2012,03,14,13,47,16.10
2012,03,14,13,48,20.90
2012,03,14,13,49,16.10
2012,03,14,13,50,19.30
2012,03,14,13,51,22.50
2012,03,14,13,52,24.20
2012,03,14,13,53,27.40
2012,03,14,13,54,22.50
2012,03,14,13,55,17.70
2012,03,14,13,56,22.50
2012,03,14,13,57,22.50
2012,03,14,13,58,16.10
2012,03,14,13,59,14.50
2012,03,14,14,00,22.50
2012,03,14,14,01,20.90
2012,03,14,14,02,27.40
2012,03,14,14,03,32.20
2012,03,14,14,04,27.40
2012,03,14,14,05,29.00
2012,03,14,14,06,16.10
2012,03,14,14,07,16.10
2012,03,14,14,08,22.50
2012,03,14,14,09,17.70
2012,03,14,14,10,24.20
2012,03,14,14,11,27.40
2012,03,14,14,12,20.90
2012,03,14,14,13,22.50
2012,03,14,14,14,17.70
2012,03,14,14,15,22.50
2012,03,14,14,16,27.40
2012,03,14,14,17,27.40
2012,03,14,14,18,29.00
2012,03,14,14,19,25.70
2012,03,14,14,20,29.00
2012,03,14,14,21,22.50
2012,03,14,14,22,16.10
2012,03,14,14,23,19.30
2012,03,14,14,24,20.90
2012,03,14,14,25,16.10
2012,03,14,14,26,19.30
2012,03,14,14,27,19.30
2012,03,14,14,28,19.30
2012,03,14,14,29,8.10
2012,03,14,14,30,24.20
2012,03,14,14,31,20.90
2012,03,14,14,32,24.20
2012,03,14,14,33,17.70
2012,03,14,14,34,24.20
2012,03,14,14,35,22.50
2012,03,14,14,36,24.20
2012,03,14,14,37,29.00
2012,03,14,14,38,20.90
2012,03,14,14,39,17.70
2012,03,14,14,40,20.90
2012,03,14,14,41,22.50
2012,03,14,14,42,24.20
2012,03,14,14,43,16.10
2012,03,14,14,44,20.90
2012,03,14,14,45,19.30
2012,03,14,14,46,16.10
2012,03,14,14,47,17.70
2012,03,14,14,48,17.70
2012,03,14,14,49,19.30
2012,03,14,14,50,19.30
2012,03,14,14,51,17.70
2012,03,14,14,52,20.90
2012,03,14,14,53,20.90
2012,03,14,14,54,16.10
2012,03,14,14,55,11.30
2012,03,14,14,56,20.90
2012,03,14,14,57,19.30
2012,03,14,14,58,20.90
2012,03,14,14,59,14.50
2012,03,14,15,00,14.50
2012,03,14,15,01,16.10
2012,03,14,15,02,19.30
2012,03,14,15,03,17.70
2012,03,14,15,04,22.50
2012,03,14,15,05,11.30
2012,03,14,15,06,17.70
2012,03,14,15,07,14.50
2012,03,14,15,08,14.50
2012,03,14,15,09,11.30
2012,03,14,15,10,17.70
2012,03,14,15,11,20.90
2012,03,14,15,12,17.70
2012,03,14,15,13,16.10
2012,03,14,15,14,16.10
2012,03,14,15,15,20.90
2012,03,14,15,16,22.50
2012,03,14,15,17,17.70
2012,03,14,15,18,12.90
2012,03,14,15,19,17.70
2012,03,14,15,20,17.70
2012,03,14,15,21,19.30
2012,03,14,15,22,19.30
2012,03,14,15,23,20.90
2012,03,14,15,24,20.90
2012,03,14,15,25,17.70
2012,03,14,15,26,17.70
2012,03,14,15,27,11.30
2012,03,14,15,28,20.90
2012,03,14,15,29,17.70
2012,03,14,15,30,19.30
2012,03,14,15,31,12.90
2012,03,14,15,32,16.10
2012,03,14,15,33,16.10
2012,03,14,15,34,17.70
2012,03,14,15,35,9.60
2012,03,14,15,36,16.10
2012,03,14,15,37,16.10
2012,03,14,15,38,16.10
2012,03,14,15,39,16.10
2012,03,14,15,40,19.30
2012,03,14,15,41,11.30
2012,03,14,15,42,17.70
2012,03,14,15,43,19.30
2012,03,14,15,44,17.70
2012,03,14,15,45,19.30
2012,03,14,15,46,20.90
2012,03,14,15,47,20.90
2012,03,14,15,48,19.30
2012,03,14,15,49,14.50
2012,03,14,15,50,16.10
2012,03,14,15,51,16.10
2012,03,14,15,52,16.10
2012,03,14,15,53,14.50
2012,03,14,15,54,17.70
2012,03,14,15,55,19.30
2012,03,14,15,56,16.10
2012,03,14,15,57,11.30
2012,03,14,15,58,19.30
2012,03,14,15,59,19.30
2012,03,14,16,00,17.70
2012,03,14,16,01,19.30
2012,03,14,16,02,17.70
2012,03,14,16,03,16.10
2012,03,14,16,04,20.90
2012,03,14,16,05,9.60
2012,03,14,16,06,11.30
2012,03,14,16,07,17.70
2012,03,14,16,08,11.30
2012,03,14,16,09,22.50
2012,03,14,16,10,17.70
2012,03,14,16,11,17.70
2012,03,14,16,12,14.50
2012,03,14,16,13,16.10
2012,03,14,16,14,16.10
2012,03,14,16,15,14.50
2012,03,14,16,16,14.50
2012,03,14,16,17,14.50
2012,03,14,16,18,16.10
2012,03,14,16,19,11.30
2012,03,14,16,20,20.90
2012,03,14,16,21,14.50
2012,03,14,16,22,19.30
2012,03,14,16,23,9.60
2012,03,14,16,24,16.10
2012,03,14,16,25,17.70
2012,03,14,16,26,22.50
2012,03,14,16,27,19.30
2012,03,14,16,28,20.90
2012,03,14,16,29,11.30
2012,03,14,16,30,27.40
2012,03,14,16,31,17.70
2012,03,14,16,32,12.90
2012,03,14,16,33,11.30
2012,03,14,16,34,19.30
2012,03,14,16,35,22.50
2012,03,14,16,36,20.90
2012,03,14,16,37,19.30
2012,03,14,16,38,19.30
2012,03,14,16,39,24.20
2012,03,14,16,40,19.30
2012,03,14,16,41,19.30
2012,03,14,16,42,14.50
2012,03,14,16,43,20.90
2012,03,14,16,44,22.50
2012,03,14,16,45,17.70
2012,03,14,16,46,17.70
2012,03,14,16,47,19.30
2012,03,14,16,48,22.50
2012,03,14,16,49,32.20
2012,03,14,16,50,16.10
2012,03,14,16,51,17.70
2012,03,14,16,52,22.50
2012,03,14,16,53,22.50
2012,03,14,16,54,16.10
2012,03,14,16,55,24.20
2012,03,14,16,56,12.90
2012,03,14,16,57,16.10
2012,03,14,16,58,11.30
2012,03,14,16,59,8.10
2012,03,14,17,00,8.10
2012,03,14,17,01,16.10
2012,03,14,17,02,24.20
2012,03,14,17,03,25.70
2012,03,14,17,04,17.70
2012,03,14,17,05,16.10
2012,03,14,17,06,19.30
2012,03,14,17,07,25.70
2012,03,14,17,08,19.30
2012,03,14,17,09,19.30
2012,03,14,17,10,20.90
2012,03,14,17,11,20.90
2012,03,14,17,12,17.70
2012,03,14,17,13,14.50
2012,03,14,17,14,16.10
2012,03,14,17,15,11.30
2012,03,14,17,16,19.30
2012,03,14,17,17,20.90
2012,03,14,17,18,25.70
2012,03,14,17,19,22.50
2012,03,14,17,20,24.20
2012,03,14,17,21,16.10
2012,03,14,17,22,17.70
2012,03,14,17,23,20.90
2012,03,14,17,24,24.20
2012,03,14,17,25,19.30
2012,03,14,17,26,25.70
2012,03,14,17,27,24.20
2012,03,14,17,28,22.50
2012,03,14,17,29,25.70
2012,03,14,17,30,19.30